Sidney, NE

11:02 AM MDT on April 20, 2018 (GMT -0600)
Sidney Municipal

Weather History for KSNY - June, 2013

Change the Weather History Date:

Monday, June 24, 2013

  Actual Average Record
Temperature  
Mean Temperature 77 °F 71 °F  
Max Temperature 91 °F 86 °F 102 °F (2012)
Min Temperature 63 °F 56 °F 37 °F (1993)
Degree Days  
Heating Degree Days 0 1  
Month to date heating degree days 37 55  
Since 1 June heating degree days 37 55  
Since 1 July heating degree days 6677 6217  
Cooling Degree Days 12 7  
Month to date cooling degree days 109 92  
Year to date cooling degree days 142 114  
Since 1 June cooling degree days 109 92  
Growing Degree Days 27 (Base 50)    
Moisture  
Dew Point 51 °F    
Average Humidity 54    
Maximum Humidity 84    
Minimum Humidity 24    
Precipitation  
Precipitation 0.00 in 0.10 in 0.86 in (1969)
Month to date precipitation 0.30 2.64  
Year to date precipitation 6.08 9.40  
Sea Level Pressure  
Sea Level Pressure 29.68 in    
Wind  
Wind Speed 16 mph (South)    
Max Wind Speed 33 mph    
Max Gust Speed 41 mph    
Visibility 10 miles    
Events      
T = Trace of Precipitation, MM = Missing Value Source: NWS Daily Summary

Daily Weather History Graph

Daily Weather History Graph

Search for Another Location

Airport or City:

Astronomy

Jun. 24, 2013 Rise Set
Actual Time 5:20 AM MDT 8:28 PM MDT
Civil Twilight 4:46 AM MDT 9:02 PM MDT
Nautical Twilight 4:03 AM MDT 9:45 PM MDT
Astronomical Twilight 3:12 AM MDT 10:36 PM MDT
Moon 9:31 PM MDT (6/24) 6:51 AM MDT (6/24)
Length of Visible Light 16h 15m
Length of Day
15h 07m
Full, 97% of the Moon is Illuminated
Jun 24
Full
Jun 29
Last Quarter
Jul 8
New
Jul 15
First Quarter
Jul 22
Full

Hourly Weather History & Observations

Time (MDT) Temp. Heat Index Dew Point Humidity Pressure Visibility Wind Dir Wind Speed Gust Speed Precip Events Conditions
12:12 AM 69.8 °F - 46.4 °F 43% 29.90 in 10.0 mi SW 35.7 mph 44.9 mph N/A   Squalls
12:26 AM 71.6 °F - 46.4 °F 41% 29.88 in 8.0 mi SW 33.4 mph 50.6 mph N/A   Scattered Clouds
12:53 AM 69.1 °F - 48.0 °F 47% 29.74 in 10.0 mi SSW 33.4 mph 46.0 mph N/A   Scattered Clouds
1:53 AM 75.0 °F - 39.9 °F 28% 29.72 in 10.0 mi SW 19.6 mph 35.7 mph N/A   Overcast
2:53 AM 73.0 °F - 41.0 °F 31% 29.70 in 10.0 mi South 23.0 mph 29.9 mph N/A   Clear
3:53 AM 73.0 °F - 41.0 °F 31% 29.66 in 10.0 mi South 6.9 mph 28.8 mph N/A   Clear
4:53 AM 68.0 °F - 44.1 °F 42% 29.66 in 10.0 mi NW 16.1 mph - N/A   Clear
5:53 AM 64.0 °F - 48.0 °F 56% 29.70 in 10.0 mi West 6.9 mph - N/A   Clear
6:53 AM 64.0 °F - 50.0 °F 60% 29.72 in 10.0 mi West 13.8 mph - N/A   Clear
7:53 AM 70.0 °F - 48.9 °F 47% 29.72 in 10.0 mi WSW 21.9 mph - N/A   Clear
8:53 AM 73.9 °F - 48.9 °F 41% 29.71 in 10.0 mi WSW 19.6 mph - N/A   Clear
9:53 AM 78.1 °F - 48.9 °F 36% 29.71 in 10.0 mi SW 17.3 mph 26.5 mph N/A   Clear
10:53 AM 81.0 °F - 48.9 °F 33% 29.69 in 10.0 mi SSW 18.4 mph 23.0 mph N/A   Clear
11:53 AM 84.0 °F - 50.0 °F 31% 29.68 in 10.0 mi SSW 18.4 mph 26.5 mph N/A   Clear
12:53 PM 87.1 °F - 51.1 °F 29% 29.65 in 10.0 mi South 20.7 mph 28.8 mph N/A   Clear
1:53 PM 89.1 °F - 50.0 °F 26% 29.61 in 10.0 mi South 16.1 mph 25.3 mph N/A   Clear
2:53 PM 90.0 °F - 48.9 °F 24% 29.60 in 10.0 mi SSW 12.7 mph 26.5 mph N/A   Clear
3:53 PM 90.0 °F 87.5 °F 53.1 °F 28% 29.59 in 10.0 mi South 19.6 mph 27.6 mph N/A   Clear
4:53 PM 89.1 °F - 52.0 °F 28% 29.59 in 10.0 mi SSE 18.4 mph 25.3 mph N/A   Clear
5:53 PM 89.1 °F - 51.1 °F 27% 29.58 in 10.0 mi SSE 18.4 mph 24.2 mph N/A   Clear
6:53 PM 86.0 °F 84.0 °F 53.1 °F 32% 29.58 in 10.0 mi SE 17.3 mph - N/A   Clear
7:53 PM 81.0 °F 81.1 °F 57.9 °F 45% 29.57 in 10.0 mi SE 16.1 mph - N/A   Clear
8:53 PM 75.0 °F - 59.0 °F 57% 29.61 in 10.0 mi ESE 10.4 mph - N/A   Clear
9:53 PM 73.9 °F - 60.1 °F 62% 29.63 in 10.0 mi ESE 11.5 mph - N/A   Clear
10:53 PM 72.0 °F - 64.0 °F 76% 29.62 in 10.0 mi SE 16.1 mph - N/A   Clear
11:22 PM 71.6 °F - 64.4 °F 78% 29.82 in 10.0 mi ENE 16.1 mph 21.9 mph N/A   Scattered Clouds
11:53 PM 70.0 °F - 64.9 °F 84% 29.64 in 10.0 mi ENE 16.1 mph - N/A   Scattered Clouds